EST,Max TemperatureF,Mean TemperatureF,Min TemperatureF,Max Dew PointF,MeanDew PointF,Min DewpointF,Max Humidity, Mean Humidity, Min Humidity, Max Sea Level PressureIn, Mean Sea Level PressureIn, Min Sea Level PressureIn, Max VisibilityMiles, Mean VisibilityMiles, Min VisibilityMiles, Max Wind SpeedMPH, Mean Wind SpeedMPH, Max Gust SpeedMPH,PrecipitationIn, CloudCover, Events, WindDirDegrees
2013-12-1,44,35,26,34,30,25,100,79,53,30.10,30.04,29.99,10,8,2,9,4,9,0.00,2,,271
2013-12-2,37,30,24,32,29,23,100,90,75,29.99,29.90,29.83,10,5,2,13,3,,0.01,7,Rain,102
2013-12-3,46,39,32,45,39,32,100,93,87,29.83,29.79,29.75,5,4,2,16,8,16,0.11,7,Rain,137
2013-12-4,59,50,42,55,49,43,100,95,82,29.83,29.73,29.63,7,4,0,10,5,17,0.00,8,Fog,157
2013-12-5,59,42,26,54,28,19,93,78,69,30.20,29.97,29.64,10,10,7,21,13,28,0.00,6,,271
2013-12-6,28,26,23,21,19,12,80,72,63,30.42,30.28,30.16,10,10,10,12,8,10,0.00,7,,324
2013-12-7,26,20,14,14,12,10,86,72,54,30.62,30.55,30.43,10,10,7,12,7,16,0.00,3,Snow,315
2013-12-8,26,22,17,27,16,10,100,76,59,30.54,30.27,29.96,10,8,1,18,8,25,0.00,6,Snow,98
2013-12-9,28,22,15,27,17,5,93,78,62,30.18,30.07,29.92,10,8,1,20,11,28,0.00,7,Snow,252
2013-12-10,23,13,3,10,5,-4,79,65,49,30.27,30.14,30.04,10,10,10,24,11,33,0.00,2,,252
2013-12-11,23,14,6,19,11,1,93,78,58,30.48,30.35,30.27,10,7,0,18,8,23,0.01,6,Snow,273
2013-12-12,21,10,-2,10,1,-8,78,66,45,30.51,30.38,30.25,10,10,10,16,8,24,0.00,2,Snow,240
2013-12-13,30,21,12,27,14,5,100,69,55,30.25,30.18,30.13,10,9,1,8,4,,0.00,2,Snow,152
2013-12-14,26,24,21,27,23,18,100,91,86,30.15,29.95,29.81,10,4,0,15,9,20,0.17,8,Snow,56
2013-12-15,26,17,8,23,12,3,93,81,68,30.09,29.98,29.89,10,9,1,17,10,23,0.00,6,Snow,257
2013-12-16,21,14,8,18,11,5,93,81,63,30.15,30.07,30.00,10,7,1,8,4,,0.05,7,Snow,147
2013-12-17,28,22,17,25,20,18,100,91,80,30.06,30.01,29.95,10,4,0,16,8,23,0.00,7,Snow,248
2013-12-18,33,24,14,21,14,12,93,72,55,30.20,30.07,29.90,10,10,10,12,7,25,0.00,0,,221
2013-12-19,42,38,33,37,32,23,93,77,60,29.98,29.92,29.85,10,10,4,12,6,20,0.00,3,,207
2013-12-20,51,45,39,52,44,37,100,98,81,29.85,29.76,29.70,7,2,0,13,4,23,0.24,8,Fog-Rain,213
2013-12-21,41,37,33,41,34,32,100,98,93,29.82,29.75,29.57,10,4,0,21,7,32,1.11,8,Fog-Rain-Snow,16
2013-12-22,35,34,32,34,33,30,100,96,87,30.04,29.75,29.48,10,4,1,20,9,23,0.25,8,Rain-Snow,256
2013-12-23,32,21,8,30,19,3,100,84,68,30.40,30.26,30.04,10,9,4,16,12,21,0.00,7,Snow,265
2013-12-24,17,10,3,12,5,-2,86,80,73,30.53,30.47,30.39,10,9,3,18,9,22,0.00,3,Snow,249
2013-12-25,26,22,17,25,18,12,93,80,74,30.43,30.26,30.10,10,9,1,10,6,20,0.00,8,Snow,197
2013-12-26,32,26,19,27,21,14,100,78,64,30.30,30.21,30.07,10,9,2,20,10,25,0.00,7,Snow,236
2013-12-27,41,34,28,32,29,27,93,79,65,30.32,30.24,30.15,10,10,10,14,7,24,0.00,3,,225
2013-12-28,48,42,35,34,31,28,87,71,54,30.15,30.07,29.91,10,10,7,14,9,21,0.00,0,,221
2013-12-29,41,32,23,32,27,21,100,78,61,30.06,29.87,29.77,10,9,2,17,8,26,0.00,4,Snow,269
2013-12-30,23,18,14,19,12,10,86,74,63,30.27,30.18,30.07,10,9,2,16,9,20,0.00,6,Snow,275
2013-12-31,17,12,8,14,9,5,93,79,68,30.34,30.25,30.13,10,7,2,17,9,24,0.00,7,Snow,265